TimeEST,TemperatureF,Dew PointF,Humidity,Sea Level PressureIn,VisibilityMPH,Wind Direction,Wind SpeedMPH,Gust SpeedMPH,PrecipitationIn,Events,Conditions,WindDirDegrees,DateUTC
12:00 AM,23.0,17.1,78,30.42,-9999.0,Calm,Calm,-,N/A,,Partly Cloudy,0,2013-12-26 05:00:00
1:00 AM,21.0,16.0,81,30.40,-9999.0,Calm,Calm,-,N/A,,Scattered Clouds,0,2013-12-26 06:00:00
2:00 AM,18.0,15.1,88,30.40,-9999.0,Calm,Calm,-,N/A,,Clear,0,2013-12-26 07:00:00
3:00 AM,19.0,17.1,92,30.39,-9999.0,Calm,Calm,-,N/A,,Mostly Cloudy,0,2013-12-26 08:00:00
4:00 AM,19.9,16.0,85,30.35,-9999.0,Calm,Calm,-,N/A,,Partly Cloudy,0,2013-12-26 09:00:00
5:00 AM,18.0,15.1,88,30.32,-9999.0,Calm,Calm,-,N/A,,Partly Cloudy,0,2013-12-26 10:00:00
6:00 AM,21.9,19.0,89,30.30,-9999.0,Calm,Calm,-,N/A,,Overcast,0,2013-12-26 11:00:00
7:00 AM,23.0,19.9,88,30.30,-9999.0,Calm,Calm,-,N/A,,Overcast,0,2013-12-26 12:00:00
8:00 AM,25.0,21.0,85,30.30,-9999.0,Calm,Calm,-,N/A,,Overcast,0,2013-12-26 13:00:00
8:56 AM,26.6,21.2,80,30.29,-9999.0,Calm,Calm,-,N/A,,Mostly Cloudy,0,2013-12-26 13:56:00
9:00 AM,27.0,21.0,78,30.29,-9999.0,Calm,Calm,-,N/A,,Mostly Cloudy,0,2013-12-26 14:00:00
10:00 AM,30.9,21.9,69,30.29,-9999.0,WNW,4.6,-,N/A,,Mostly Cloudy,300,2013-12-26 15:00:00
10:16 AM,30.2,21.2,69,30.28,-9999.0,West,6.9,-,N/A,,Overcast,280,2013-12-26 15:16:00
11:00 AM,33.1,21.9,64,30.26,-9999.0,West,6.9,-,N/A,,Overcast,270,2013-12-26 16:00:00
11:08 AM,33.8,21.2,60,30.26,-9999.0,West,9.2,-,N/A,,Overcast,260,2013-12-26 16:08:00
12:00 PM,34.0,18.0,52,30.22,-9999.0,West,9.2,-,N/A,,Overcast,260,2013-12-26 17:00:00
1:00 PM,36.0,19.0,50,30.20,-9999.0,West,13.8,19.6,N/A,,Mostly Cloudy,260,2013-12-26 18:00:00
2:00 PM,39.0,21.9,50,30.17,-9999.0,WSW,11.5,-,N/A,,Clear,250,2013-12-26 19:00:00
3:00 PM,41.0,23.0,49,30.19,-9999.0,West,13.8,20.7,N/A,,Clear,270,2013-12-26 20:00:00
4:00 PM,39.0,24.1,55,30.21,-9999.0,WNW,10.4,-,N/A,,Clear,290,2013-12-26 21:00:00
6:00 PM,33.1,21.9,64,30.25,-9999.0,West,5.8,-,N/A,,Clear,280,2013-12-26 23:00:00
7:00 PM,30.0,21.0,69,30.27,-9999.0,Calm,Calm,-,N/A,,Clear,0,2013-12-27 00:00:00
8:00 PM,26.1,19.9,78,30.28,-9999.0,Calm,Calm,-,N/A,,Clear,0,2013-12-27 01:00:00
9:00 PM,24.1,19.9,84,30.29,-9999.0,Calm,Calm,-,N/A,,Clear,0,2013-12-27 02:00:00
10:00 PM,25.0,19.9,81,30.31,-9999.0,Calm,Calm,-,N/A,,Clear,0,2013-12-27 03:00:00
11:00 PM,21.9,18.0,85,30.31,-9999.0,Calm,Calm,-,N/A,,Clear,0,2013-12-27 04:00:00